Location: Hall+in+Tirol
(47.2830°N, 11.5170°E)
Time: 03:49:14
(UTC+01:00)

Daily predictions for brighter satellites

Satellite Brightness Start Highest point End
(mag) Time Altitude Azimuth Time Altitude Azimuth Time Altitude Azimuth
CENTAUR R/B 4.5 03:17:48 24° ENE 03:17:48 24° ENE 03:21:10 10° NE
SL-16 R/B 3.6 04:05:07 36° E 04:05:07 36° E 04:09:13 10° NE
Lacrosse 5 rocket 4.5 04:12:21 11° NE 04:12:21 11° NE 04:12:26 10° NE
Cosmos 2237 Rocket 3.7 04:37:00 25° NNE 04:37:00 25° NNE 04:39:21 10° NNE
ADEOS II 3.9 04:33:10 10° NNE 04:34:58 22° NNE 04:34:58 22° NNE
USA 215 4.1 04:40:04 10° ENE 04:46:16 45° SE 04:50:39 19° SSW
Cosmos 2056 Rocket 4.3 04:46:24 42° NNE 04:47:22 48° ENE 04:52:18 10° SE
Cosmos 921 Rocket 4.3 04:53:38 35° SSE 04:53:38 35° SSE 04:56:18 10° SSE
CZ-4C R/B 4.2 04:51:37 19° N 04:51:50 19° N 04:56:33 10° NE
Cosmos 1346 Rocket 4.4 04:54:48 31° SE 04:54:48 31° SE 04:57:07 10° SSE
Cosmos 2369 Rocket 3.4 04:55:58 23° N 04:58:57 38° NE 05:04:15 10° ESE
Feng Yun 1-1 Rocket 4.2 04:53:44 10° NNE 04:59:25 82° ESE 05:04:54 10° SSW
Cosmos 1624 Rocket 4.3 05:00:00 50° N 05:01:14 67° ENE 05:06:31 10° SSE
Meteor 1-18 Rocket 4.2 05:00:49 71° NW 05:01:24 79° W 05:07:20 10° S
USA 32 3.9 05:03:41 56° N 05:04:51 87° E 05:10:06 10° S
COSMO-SKYMED 1 3.1 05:01:18 10° SSE 05:05:33 57° ENE 05:06:23 48° NNE
CENTAUR R/B 2.5 05:05:01 62° WNW 05:05:34 65° NW 05:12:39 10° NE
Cosmos 1371 Rocket 3.9 05:05:16 71° NNW 05:05:52 86° ENE 05:11:09 10° SSE
Cosmos 2074 Rocket 4.0 05:00:23 10° S 05:06:39 79° E 05:12:56 10° N
Cosmos 2219 Rocket 3.9 05:13:03 18° N 05:13:03 18° N 05:15:02 10° N
ATLAS 5 CENTAUR R/B 4.1 05:10:36 15° N 05:10:44 15° N 05:13:59 10° NNE
SL-08 ROCKET BODY 4.3 05:06:05 10° S 05:12:03 86° E 05:17:58 10° N
Meteor 1-20 Rocket 4.1 05:12:49 10° S 05:18:24 89° W 05:23:56 10° N
Cosmos 2184 Rocket 3.8 05:16:08 10° S 05:22:18 85° W 05:28:34 10° N
Cosmos 2333 Rocket 3.7 05:27:45 21° NNW 05:27:45 21° NNW 05:30:26 10° N
ATLAS 3B R/B 4.3 05:24:12 18° NNW 05:26:21 21° N 05:31:27 10° NE
Cosmos 1300 Rocket 4.0 05:23:13 10° S 05:27:36 62° E 05:31:57 10° NNE
Cosmos 1238 Rocket 3.9 05:29:24 43° SW 05:29:24 43° SW 05:33:52 10° SSW
Lacrosse 4 Rocket 3.8 05:26:26 12° N 05:28:40 17° NE 05:31:26 10° E
Cosmos 1680 Rocket 3.6 05:30:48 51° WNW 05:30:53 51° WNW 05:36:00 10° NNE
Tiangong 2 2.5 05:31:35 33° SSE 05:31:35 33° SSE 05:34:02 10° ESE
SKYMED 3 4.4 05:31:15 10° S 05:35:35 72° WSW 05:36:46 46° NNW
CZ-4B R/B 4.4 05:31:33 10° N 05:42:09 - SSW 05:35:13 48° NW
Cosmos 1452 Rocket 4.1 05:32:32 15° NNW 05:36:49 55° ENE 05:41:59 10° SE
Cosmos 2154 Rocket 4.3 05:31:45 10° S 05:37:54 70° E 05:44:05 10° NNE
Cosmos 1943 Rocket 3.2 05:41:17 11° NNW 05:46:11 41° NE 05:51:22 10° SE
Meteor 1-19 Rocket 4.2 05:41:31 10° NNW 05:47:26 89° WSW 05:53:14 10° S
SL-16 R/B 2.6 05:47:04 35° WNW 05:48:07 38° NW 05:53:25 10° NNE
Lacrosse 5 rocket 2.8 05:48:04 23° NNW 05:48:23 23° N 05:51:54 10° NE
Cosmos 2112 Rocket 4.3 05:48:59 34° W 05:50:26 42° WNW 05:55:23 10° N
NOAA 6 4.0 05:46:01 10° N 05:51:05 60° WNW 05:56:06 10° SSW
Radarsat Rocket 4.4 05:45:26 10° NNE 05:52:21 82° WNW 06:00:11 10° SSW
SKYMED 2 3.8 05:49:30 10° S 05:53:41 46° W 05:55:02 34° NW
Lacrosse 5 2.7 05:49:08 10° SSW 05:54:05 52° SE 05:59:02 10° ENE
Meteor 1-11 Rocket 3.8 05:50:46 10° S 05:56:37 84° E 06:02:23 10° NNE
DNEPR-1 R/B 4.4 05:50:29 10° SW 05:57:32 67° NW 06:03:18 10° NE
Helios 1B rocket 3.9 05:53:44 10° SE 05:57:34 37° ENE 06:01:25 10° N
Cosmos 1610 Rocket 4.4 05:54:10 10° SSW 06:00:16 63° WNW 06:06:31 10° N
Cosmos 44 Rocket 3.7 05:55:39 10° SSW 06:00:47 69° ESE 06:05:53 10° NE
Cosmos 192 4.2 05:57:08 10° SSW 06:02:02 85° WNW 06:06:59 10° NNE
Cosmos 2263 4.3 05:58:46 14° NNW 06:03:46 79° ENE 06:09:23 10° SSE
Meteor 1-13 Rocket 4.4 05:59:14 10° NNW 06:05:02 56° W 06:10:49 10° S
SL-24 DEB 4.2 06:08:49 10° S 06:13:35 69° W 06:18:24 10° N
Meteor 1-23 Rocket 4.1 06:10:37 10° NNW 06:16:13 83° W 06:21:45 10° S
ADEOS II 3.8 06:14:18 10° NNW 06:15:55 15° NW 06:15:55 15° NW
Cosmos 2237 Rocket 3.8 06:18:51 15° NW 06:19:03 15° NW 06:22:10 10° N
YAOGAN 1 3.9 06:17:09 10° NNE 06:21:18 43° E 06:25:26 10° S
Cosmos 1602 4.1 06:17:47 10° SSW 06:21:31 40° WNW 06:25:18 10° N
SL-23 DEB 3.3 06:21:53 26° WNW 06:23:31 82° SSW 06:27:09 10° ESE
Cosmos 1025 Rocket 3.0 06:19:59 10° NNW 06:24:20 60° W 06:28:37 10° S
Cosmos 1633 3.0 06:22:20 10° SW 06:25:45 37° WNW 06:29:10 10° N
Nadezhda 3 Rocket 4.3 06:23:19 10° NNW 06:29:18 44° W 06:35:16 10° SSW
CSL-04 Rocket 3.7 06:23:50 10° N 06:29:21 65° WNW 06:34:48 10° SSW
USA 215 3.3 06:23:01 10° NE 06:29:30 70° NNW 06:35:59 10° WSW
Meteor 2-4 Rocket 3.8 06:24:54 10° NNW 06:30:14 56° W 06:35:43 10° S
USA 129 3.1 06:29:44 10° SSW 06:31:11 23° WSW 06:31:11 23° WSW
CSL-04 Debris 4.1 06:26:25 10° N 06:31:52 71° WNW 06:37:19 10° SSW
BREEZE-M DEB (TANK) 4.5 06:16:18 12° W 06:31:59 75° N 06:36:20 10° E
Cosmos 1420 Rocket 4.0 06:27:04 10° NNW 06:32:23 88° WSW 06:37:36 10° SSE
SPOT 3 Rocket 4.2 06:27:51 10° NNE 06:32:56 58° E 06:38:01 10° S
Okean 2 3.3 06:30:36 10° NNW 06:34:47 74° W 06:38:56 10° S
Okean 1 Rocket 3.7 06:32:46 10° SW 06:36:45 33° WNW 06:40:44 10° N
Cosmos 1295 Rocket 4.5 06:31:38 10° SSW 06:37:56 74° W 06:44:12 10° N
Cosmos 839 Rocket 4.1 06:32:00 10° NW 06:38:53 88° NE 06:45:02 10° SE
Cosmos 1544 Rocket 3.7 06:36:35 10° S 06:40:55 79° E 06:45:20 10° NNE
Meteor 1-28 Rocket 4.4 06:38:16 10° SSW 06:41:21 23° W 06:44:10 12° NW
COSMO-SKYMED 1 4.2 06:39:23 10° SW 06:42:04 16° W 06:43:36 14° WNW
CZ-4C R/B 4.2 06:37:19 10° NNW 06:42:44 26° NNE 06:48:43 10° ENE
Cosmos 2369 Rocket 2.7 06:37:47 10° NW 06:43:01 40° WSW 06:48:17 10° S
Ariane Rocket 3.4 06:39:05 10° N 06:43:45 38° WNW 06:48:23 10° SW
Meteor 1-5 Rocket 4.0 06:38:48 10° SSW 06:44:10 82° WNW 06:49:30 10° N
IRS-1A Rocket 4.3 06:38:51 10° NNE 06:44:31 71° WNW 06:50:16 10° SSW
Cosmos 1603 4.3 06:40:40 10° WSW 06:45:52 36° NW 06:51:04 10° NNE
Cosmos 1727 Rocket 4.1 06:44:21 10° N 06:50:35 86° E 06:56:47 10° S
CZ-4 R/B 1.3 06:47:15 10° N 06:51:13 62° WNW 06:55:04 10° SSW
IDEFIX/ARIANE 42P 2.6 06:48:55 10° NNE 06:54:09 88° WNW 06:59:21 10° SSW
Cosmos 2341 Rocket 4.3 06:48:15 10° SW 06:54:13 44° WNW 07:00:12 10° N
Cosmos 1340 3.0 06:51:02 10° NNW 06:54:41 46° W 06:58:18 10° S
SJ-12 4.0 06:53:25 10° N 06:57:32 61° WNW 07:01:38 10° SSW
ATLAS 5 CENTAUR R/B 4.0 06:53:18 10° NNW 06:57:34 21° NNE 07:02:07 10° ENE
CORIOLIS 4.3 06:52:17 10° NNE 06:57:41 83° ESE 07:03:02 10° SSW
CENTAUR R/B 3.8 06:52:14 10° WNW 06:57:42 27° NNW 07:03:49 10° NE
Cosmos 1892 Rocket 4.0 06:56:40 10° NNW 07:00:54 44° W 07:05:09 10° SSW
SMAP 3.0 06:57:33 10° N 07:02:13 71° WNW 07:06:50 10° SSW
Cosmos 1536 3.9 07:00:04 10° SW 07:03:21 24° WNW 07:06:41 10° NNW
Cosmos 44 3.5 06:59:56 10° SW 07:05:15 65° NW 07:10:22 10° NNE
Tiangong 2 2.8 07:04:36 10° WSW 07:07:19 26° SSW 07:10:01 10° SE
Lacrosse 4 Rocket 1.4 07:03:44 10° NW 07:07:56 77° WSW 07:12:00 10° SSE
Cosmos 1943 3.5 07:05:42 10° SW 07:11:05 45° NW 07:16:32 10° NNE
CZ-2C R/B 2.6 07:07:35 10° N 07:12:41 58° WNW 07:17:41 10° SSW
Cosmos 1484 Rocket 2.9 07:10:46 10° NNE 07:14:33 81° ESE 07:18:22 10° S
Cosmos 1626 Rocket 3.6 07:11:18 10° N 07:15:46 84° W 07:20:10 10° S
MSX 3.9 07:10:32 10° NNE 07:16:19 90° ESE 07:22:04 10° SSW
